Regional Weather Roundup
Issued by NWS

Home | Current Version | Previous Version | Text Only | Print | Product List | Glossary Off
Versions: 1 2 3 4 5 6 7 8 9 10 11 12 13 14 15 16 17 18 19 20 21 22 23 24 25 26 27 28 29 30 31 32 33 34 35 36 37 38 39 40 41 42 43 44 45 46 47 48 49 50

000
ASUS43 KMKX 210311
RWRWI

WISCONSIN REGIONAL WEATHER ROUNDUP
NATIONAL WEATHER SERVICE MILWAUKEE/SULLIVAN WI
1000 PM CDT WED SEP 20 2017

NOTE: "FAIR" INDICATES FEW OR NO CLOUDS BELOW 12,000 FEET WITH NO
SIGNIFICANT WEATHER AND/OR OBSTRUCTIONS TO VISIBILITY.

WIZ001-002-006>008-014>016-023>028-210400-
NORTHWEST WISCONSIN

CITY           SKY/WX    TMP DP  RH WIND       PRES   REMARKS
SUPERIOR ARPT  CLEAR     48  46  94 CALM      29.91R
ASHLAND        CLEAR     51  50  96 SW3       29.92R
HAYWARD        CLEAR     51  50  96 CALM      29.93R
SIREN          CLEAR     49  47  90 CALM      29.93R
CUMBERLAND     CLEAR     55  52  88 CALM      29.93R
RICE LAKE      CLEAR     53  52  96 CALM      29.94R FOG
CHETEK         CLEAR     56  56  99 N6        29.92R
LADYSMITH      CLEAR     58  55  91 CALM      29.94R
EAU CLAIRE     CLEAR     60  56  86 CALM      29.90R
MENOMONIE      CLEAR     60  56  87 CALM      29.91R
NEW RICHMOND   CLEAR     55  54  94 CALM      29.93R
OSCEOLA        CLEAR     53  53 100 CALM      29.95R
$$

WIZ003>005-009-010-017-018-210400-
NORTH CENTRAL WISCONSIN

CITY           SKY/WX    TMP DP  RH WIND       PRES   REMARKS
MANITOWISH WTR FOG       55  55 100 CALM      29.93R VSB 1/4
ARBOR VITAE    CLEAR     64  63  97 NW8       29.89F
WOODRUFF       CLEAR     64  63  97 NW8       29.89F
RHINELANDER    FOG       62  62 100 CALM      29.91R VSB 1/4
EAGLE RIVER    FOG       63  63 100 CALM      29.90R VSB 1/4
LAND O LAKES   FOG       63  63 100 CALM      29.92F VSB<1/4
PHILLIPS       FOG       55  55 100 CALM      29.92R VSB 1/2
TOMAHAWK       FOG       60  59  97 CALM      29.91R VSB 1
MEDFORD        CLEAR     59  58  98 NW5       29.91R FOG
MERRILL        FOG       63  63 100 SE5       29.89  VSB 1/2
$$

WIZ029-030-035-036-043>047-210400-
CENTRAL WISCONSIN

CITY           SKY/WX    TMP DP  RH WIND       PRES   REMARKS
WAUSAU         CLOUDY    66  65  96 CALM      29.89R
MOSINEE        CLEAR     66  66 100 E3        29.92R
MARSHFIELD     CLOUDY    66  61  84 NW3       29.90R
STEVENS POINT  FOG       65  65 100 CALM      29.91R VSB 1
WAUPACA        CLOUDY    69  69  98 CALM      29.90S
WAUTOMA        CLOUDY    71  70  96 CALM      29.90R
WISC RAPIDS    CLOUDY    67  67 100 CALM      29.90R
CAMP DOUGLAS   MOCLDY    68  68 100 CALM      29.90R
$$

WIZ011>013-019>022-031-037>040-048>050-210400-
NORTHEAST WISCONSIN

CITY           SKY/WX    TMP DP  RH WIND       PRES   REMARKS
ANTIGO         FOG       64  64 100 SE3       29.93R VSB 1/2
SHAWANO        CLOUDY    70  67  91 SW3       29.91R
OCONTO         CLOUDY    70  69  95 CALM      29.86S
STURGEON BAY   CLOUDY    70  68  93 S6        29.89F
GREEN BAY      LGT RAIN  72  69  90 SW12      29.87S
MANITOWOC      LGT RAIN  72  69  90 W9        29.92R
APPLETON       TSTM      68  68 100 SE14      29.88S
CLINTONVILLE   NOT AVBL
OSHKOSH        TSTM      69  68  96 E9        29.93S FOG
$$

WIZ032>034-041-042-053>061-210400-
SOUTHWEST WISCONSIN

CITY           SKY/WX    TMP DP  RH WIND       PRES   REMARKS
LA CROSSE      NOT AVBL
SPARTA         MOCLDY    65  64  97 CALM      29.91R
VIROQUA        CLOUDY    68  67  99 CALM      29.91R
BOSCOBEL       MOCLDY    73  71  93 CALM      29.89R
PRAIRIE DU CHI CLOUDY    72  69  88 CALM      29.89R
PLATTEVILLE    CLOUDY    73  72  98 W6        29.92R
$$

WIZ056-057-062-063-064-067-068-210400-
SOUTH CENTRAL WISCONSIN

CITY           SKY/WX    TMP DP  RH WIND       PRES   REMARKS
REEDSBURG      CLOUDY    71  71 100 NW6       29.89R
BARABOO/DELLS  CLOUDY    71  69  92 CALM      29.90R
LONE ROCK      MOCLDY    74  72  93 CALM      29.88R
MINERAL POINT  CLOUDY    75  73  94 SW5       29.91R
MADISON        CLOUDY    73  70  90 W5        29.90R THUNDER
MIDDLETON      CLOUDY    74  74  99 CALM      29.91R
WATERTOWN      TSTM      73  73 100 SW14G23   29.89R
MONROE         CLOUDY    79  68  69 SW9       29.89R HX  81
JANESVILLE     LGT RAIN  81  66  61 SW8       29.87R HX  83
$$

WIZ051-052-058>065-066-070>072-210400-
SOUTHEAST WISCONSIN

CITY           SKY/WX    TMP DP  RH WIND       PRES   REMARKS
MILWAUKEE      CLOUDY    77  69  76 S6        29.88R
WAUKESHA       NOT AVBL
MILWAUKEE/TIMM CLOUDY    77  64  65 S5        29.89R
RACINE         CLOUDY    73  68  84 S3        29.90R
BURLINGTON     CLOUDY    70  67  89 CALM      29.89R
KENOSHA        CLOUDY    77  67  71 SW5       29.90R
FOND DU LAC    TSTM      68  66  93 N10       29.96R FOG
SHEBOYGAN      CLOUDY    72  69  90 NW23G38   29.99R THUNDER
WEST BEND        N/A     73  68  83 NW6       29.90R
JUNEAU         TSTM      69  67  94 N7G17     29.93R
$$

LSZ147-162-210400-
LAKE SUPERIOR

STATION/POSITION TIME  TEMP    WIND        PRES    WAVE
                       AIR SEA DIR/SP/G            HT/PER
                 (UTC) (F)     (DEG/KT/KT) (MB)    (FT/S)
W MID LAKE BUOY  0250   60 54  280/  8/  8 1012.0R   2/ 5
DEVILS ISLAND    0300   63     320/ 10/ 11 1012.7R
SAXON HARBOR     0230   60     190/  4/  5 1012.2R
$$

LMZ867-665-643>646-210400-
LAKE MICHIGAN

STATION/POSITION TIME  TEMP    WIND        PRES    WAVE
                       AIR SEA DIR/SP/G            HT/PER
                 (UTC) (F)     (DEG/KT/KT) (MB)    (FT/S)
S GREEN BAY BUOY 0300   69 66  210/  6/  8 1011.5
N MID LAKE BUOY  0250   68 65  140/ 12/ 14 1010.7F   3/ 6
NORTHPORT PIER   0240   72     160/  8/ 15 1010.5S
KEWAUNEE LAKESHO 0242   72     150/  2/  4 1010.7S
SHEBOYGAN LAKESH 0300   73     310/  8/ 10 1013.4R
PORT WASHINGTON  0300   70     180/  5/  9 1013.2
ATWATER BUOY     0209   69 64  170/  8/ 10 1011.4R
MILWAUKEE LAKESH 0250   70     220/  2/  3   N/A
S MID LAKE BUOY  0250   73 69  150/ 10/ 12 1012.1R   1/ 3
KENOSHA   LAKESH 0300   74     200/  5/  8 1012.2
$$

TC  - TEMPERATURE IN CELSIUS
VSB - VISIBILITY IN STATUTE MILES
WCI - WIND CHILL INDEX
HX  - HEAT INDEX




USA.gov is the U.S. government's official web portal to all federal, state and local government web resources and services.